sat.trackr.live / text

‹ back to catalog

STARLINK-30943

NORAD 58449 · 2023-183N

PAYLOAD ACTIVE UNKNOWN

§ Identity

Operator
Country
US
Launch date
2023-11-28
Launch site
AFETR
Launch vehicle
Mass (kg)
RCS (m²)

Purposes: comms

External: N2YO · Heavens-Above · Gunter

§ Orbital elements

Epoch: 2026-09-20T13:12:10.787904Z

Period
94.27 min
Inclination
43.0028°
Eccentricity
0.0001070
Mean motion
15.27581646 rev/d
Perigee alt
482.3 km
Apogee alt
483.8 km
Semi-major
6,861.2 km
B*
-1.8585e-5
RAAN
355.2895°
Arg perigee
265.7822°
Mean anomaly
94.2908°
Rev number
15,683

§ Raw data

STARLINK-309431 58449U 23183N   26263.55012486 -.00000773  00000+0 -18585-4 0  99962 58449  43.0028 355.2895 0001070 265.7822  94.2908 15.27581646156836

JSON: /api/v1/satellites/58449 · /tle

For live sub-satellite position, see the globe view (requires WebGL).

§ Visibility from observer

Set your observer location to see the next 7 days of passes ≥ 10°. The values pass through the URL so the page stays shareable.

No JS? Fill the form by hand. The geolocation button needs JavaScript.